Location: Makanda
(37.6176°N, 89.2090°W)
Time: 05:22:04
(UTC+00:00)

NOAA 11 - Pass Details

Date: 23 September 2019
Orbit: 832 x 850 km, 98.4° (Epoch: 23 October)

Event Time Altitude Azimuth Distance (km) Brightness Sun altitude
Rises 00:28:29 0° 150° (SSE) 3,400 7.0 -7.6°
Reaches altitude 10° 00:30:55 10° 145° (SE) 2,468 6.2 -8.1°
Maximum altitude 00:36:10 49° 72° (ENE) 1,083 4.4 -9.2°
Drops below altitude 10° 00:41:26 10° 359° (N) 2,475 6.8 -10.2°
Sets 00:43:52 0° 354° (N) 3,411 7.6 -10.7°
